User: anonymous   Login
Location: Whitehorse
(60.7170°N, 135.0500°W)
Time: 01:24:55
(UTC-07:00)
Language:

Cosmos 2219 Rocket - Orbit

View from above orbital plane
View from above orbital plane
View from above satellite
View from above satellite

Ground track
Ground track

The orbit data is extracted from the following two-line orbital elements,

1 22220U 92076B   18145.91133716 -.00000271  00000-0 -11200-3 0  9991
2 22220  71.0015  57.8208 0010734 115.0833 312.7627 14.16431537319309
Epoch (UTC): 25 May 2018 21:52:19
Eccentricity: 0.0010734
inclination: 71.0015°
perigee height: 830 km
apogee height: 845 km
right ascension of ascending node: 57.8208°
argument of perigee: 115.0833°
revolutions per day: 14.16431537
mean anomaly at epoch: 312.7627°
orbit number at epoch: 31930

The dashed part of the orbit path shows where the satellite is in the earth's shadow,  

DLR